Regional Weather Roundup
Issued by NWS Newport/Morehead, NC

Current Version | Previous Version | Text Only | Print | Product List | Glossary On
Versions: 1 2 3 4 5 6 7 8 9 10 11 12 13 14 15 16 17 18 19 20 21 22 23 24 25 26 27 28 29 30 31 32 33 34 35 36 37 38 39 40 41 42 43 44 45 46 47 48 49 50
000 ASUS42 KMHX 311510 RWRMHX WEATHER ROUNDUP FOR EASTERN NORTH CAROLINA NATIONAL WEATHER SERVICE NEWPORT/MOREHEAD CITY NC 1100 AM EDT THU JUL 31 2014 NOTE: "FAIR" INDICATES FEW OR NO CLOUDS BELOW 12,000 FEET WITH NO SIGNIFICANT WEATHER AND/OR OBSTRUCTIONS TO VISIBILITY NCZ015>017-031-032-045>047-102-103-311600- NORTH COAST CITY SKY/WX TMP DP RH WIND PRES REMARKS EDENTON PTSUNNY 80 61 52 S5 30.15S ELIZABETH CITY MOSUNNY 80 63 55 VRB6 30.15R KITTY HAWK PTSUNNY 80 65 61 E3 30.14S MANTEO NOT AVBL $$ NCZ045>047-081-094-103-104-311600- CENTRAL COAST CITY SKY/WX TMP DP RH WIND PRES REMARKS FRISCO MOSUNNY 85 63 47 VRB6 30.14R SWANQUARTER N/A 81 N/A N/A E9 30.12R $$ NCZ095-097-098-100-101-311600- SOUTHERN COAST CITY SKY/WX TMP DP RH WIND PRES REMARKS BEAUFORT PTSUNNY 83 67 58 E8 30.13R CEDAR ISLAND N/A 81 N/A N/A E12 30.18R JACKSONVILLE PTSUNNY 82 69 64 E10 30.12R NEWPORT NOT AVBL PINEY ISLAND MOSUNNY 83 70 64 E12 30.13R WILMINGTON PTSUNNY 84 70 62 E16G22 30.11R $$ NCZ011>013-027>030-043-044-078>080-089-090>093-098-311600- COASTAL PLAIN CITY SKY/WX TMP DP RH WIND PRES REMARKS AHOSKIE PTSUNNY 78 65 63 S5 30.15R CLINTON CLOUDY 81 70 68 E5 30.13R ELIZABETHTOWN CLOUDY 79 69 71 E5 30.11S GOLDSBORO CLOUDY 79 72 78 E8 30.12R GREENVILLE CLOUDY 81 68 65 SE7 30.15S HAVELOCK PTSUNNY 82 68 62 E8 30.14R KENANSVILLE N/A N/A N/A N/A MISG N/A KINSTON PTSUNNY 81 68 65 E7 30.15R NEW BERN PTSUNNY 84 67 56 E9 30.14R RICHLANDS PTSUNNY 82 66 57 E10 30.13R ROANOKE RAPIDS NOT AVBL ROCKY MOUNT CLOUDY 78 68 71 VRB5 30.15R WASHINGTON CLOUDY 77 66 69 E6 30.14S WHITEVILLE PTSUNNY 81 70 68 E8 30.10R $$ AMZ130-135-150-152-154-156-158-170-250-252-270-ANZ085-086-088-633-658-670-311600- MARINE OBSERVATIONS STATION/POSITION TIME TEMP WIND PRES WAVE SWELL AIR SEA DIR/SP/G HT/PER HT/PER (UTC) (F) (DEG/KT/KT) (MB) (FT/S) (FT/S) CHESAPEAKE LIGHT NOT AVBL BUOY 44014 1500 78 78 140/ 2/ 2 1020.7 2/ 8 2/ 8 DUCK 1500 80 76 120/ 4/ 5 1020.3 2E DUCK 1500 N/A 2/ 7 OREGON INLET 1500 77 78 60/ 5/ 7 1020.8 BUOY 44095 1500 78 N/A 3/ 8 20E OREGON INLET NOT AVBL HATTERAS CG 1500 81 79 90/ 5/ 8 1021.1 DIAMOND BUOY 1500 VRB 8/ 10 1020.1 3/ 7 3/ 7 CAPE LOOKOUT 1400 80 80/ 13/ 15 1019.7 BEAUFORT LAB 1500 81 81 100/ 8/ 12 1019.5 30 SE NEW RIVER 1500 80 81 90/ 14/ 16 1019.8 4/ 7 2/ 7 5 SE WRIGHTSVILL 1400 78 81 100/ 16/ 17 N/A BUOY 41002 1418 76 80 160/ 12/ 14 1019.1 4/ 6 3/ 7 BUOY 41004 1500 78 83 130/ 17/ 23 1016.8 4/ 5 2/ 9 $$

USA.gov is the U.S. government's official web portal to all federal, state and local government web resources and services.